TIANTONG-1 2

Last updated on Mon Jun 22 2026 00:03:07 GMT+0000 (Coordinated Universal Time)

1 46916U 20082A 26172.23031074 -.00000358 00000+0 00000+0 0 9991 2 46916 0.7848 328.1695 0001133 115.6613 33.3919 1.00267638 20698
UTC large
Height (km)
Speed (km/s)
/
Latitude / Longitude
Inclination (degrees)
Orbital Period (minutes)
Azimuth
Elevation
Range (km)
Doppler Factor

Next 0 passes for location: London (51.5072 / 0.1276)

No passes found over London.
TIANTONG-1 2